#timestamp,LO_Frequency,Hit 
1500318015.2,286054087.7,N
1500318035.1,286054090.8,N
1500318036.0,286054090.8,N
1500318055.8,286054088.5,N
1500318075.6,286054088.5,N
1500318095.5,286054089.2,N
1500318115.3,286054087.7,N
1500318135.1,286054089.5,N
1500318155.9,286054092.1,N
1500318175.7,286054089.6,N
1500318195.5,286054091.8,N
1500318215.4,286054092.3,N
1500318235.2,286054092.1,N
1500318255.0,286054091.1,N
1500318255.9,286054091.1,N
1500318275.8,286054093.2,N
1500318295.6,286054095.4,N
1500318315.4,286054093.0,N
1500318335.3,286054093.5,N
1500318355.1,286054093.3,N
1500318375.8,286054090.9,N
1500318395.7,286054091.4,N
1500318415.5,286054091.7,N
1500318435.3,286054093.4,N
1500318455.2,286054093.3,N
1500318475.9,286054094.9,N
1500318495.7,286054095.5,N
1500318515.6,286054095.4,N
1500318535.4,286054093.0,N
1500318555.2,286054093.9,N
1500318575.1,286054092.8,N
1500318576.0,286054092.8,N
1500318595.8,286054094.2,N
1500318615.6,286054098.3,N
1500318635.5,286054096.4,N
1500318655.3,286054096.5,N
1500318675.1,286054098.0,N
1500318695.9,286054098.6,N
1500318715.7,286054096.1,N
1500318735.5,286054094.1,N
1500318755.4,286054096.5,N
1500318775.2,286054098.7,N
1500318795.0,286054095.9,N
1500318795.9,286054095.9,N
1500318815.8,286054100.4,N
1500318835.6,286054095.8,N
1500318855.4,286054098.6,N
1500318875.2,286054098.1,N
1500318895.1,286054097.8,N
1500318896.0,286054097.8,N
1500318915.8,286054099.1,N
1500318935.6,286054100.1,N
1500318955.5,286054098.2,N
1500318975.3,286054095.9,N
1500318995.1,286054098.0,N
1500319015.9,286054097.6,N
1500319035.7,286054098.7,N
1500319055.5,286054094.4,N
1500319075.4,286054097.0,N
1500319095.2,286054094.6,N
1500319115.0,286054096.4,N
1500319115.9,286054096.4,N
1500319135.8,286054098.0,N
1500319155.6,286054100.2,N
1500319175.4,286054099.5,N
1500319195.3,286054099.4,N
1500319215.1,286054100.2,N
1500319216.0,286054100.2,N
1500319235.8,286054101.6,N
1500319255.7,286054101.8,N
1500319275.5,286054100.5,N
1500319295.3,286054101.8,N
1500319315.2,286054101.5,N
1500319335.9,286054101.8,N
1500319355.7,286054102.0,N
1500319375.6,286054098.9,N
1500319395.4,286054101.7,N
1500319415.2,286054101.9,N
1500319435.1,286054103.6,N
1500319436.0,286054103.6,N
1500319455.8,286054103.6,N
1500319475.6,286054103.4,N
1500319495.5,286054104.1,N
1500319515.3,286054103.9,N
1500319535.1,286054104.6,N
1500319555.8,286054102.1,N
1500319575.7,286054103.8,N
1500319595.5,286054105.0,N
1500319615.3,286054104.0,N
1500319635.2,286054104.6,N
1500319655.0,286054104.2,N
1500319655.9,286054104.2,N
1500319675.8,286054106.6,N
1500319695.6,286054103.8,N
1500319715.4,286054106.8,N
1500319735.2,286054104.0,N
1500319755.1,286054103.7,N
1500319756.0,286054103.7,N
1500319775.8,286054106.4,N
1500319795.6,286054106.2,N
1500319815.5,286054108.2,N
1500319835.3,286054108.1,N
1500319855.1,286054107.6,N
1500319875.9,286054109.9,N
1500319895.7,286054111.1,N
1500319915.5,286054109.8,N
1500319935.4,286054109.3,N
1500319955.2,286054108.1,N
1500319975.0,286054107.6,N
1500319975.9,286054107.6,N
1500319995.8,286054105.5,N
1500320015.6,286054105.3,N
1500320035.4,286054108.3,N
1500320055.3,286054108.3,N
1500320075.1,286054105.8,N
1500320076.0,286054105.8,N
1500320095.8,286054105.3,N
1500320115.7,286054107.9,N
1500320135.5,286054108.2,N
1500320155.3,286054109.6,N
1500320175.2,286054111.5,N
1500320195.9,286054109.0,N
1500320215.7,286054111.1,N
1500320235.5,286054109.6,N
1500320255.4,286054111.6,N
1500320275.2,286054108.6,N
1500320295.0,286054111.6,N
1500320296.0,286054111.6,N
1500320315.8,286054111.6,N
1500320335.6,286054110.3,N
1500320355.4,286054108.5,N
1500320375.3,286054110.2,N
1500320395.1,286054112.3,N
1500320415.8,286054112.0,N
1500320435.7,286054112.8,N
1500320455.5,286054112.4,N
1500320475.3,286054113.9,N
1500320495.2,286054116.2,N
1500320515.0,286054114.8,N
1500320515.9,286054114.8,N
1500320535.7,286054111.7,N
1500320555.6,286054112.7,N
1500320575.4,286054112.0,N
1500320595.2,286054113.4,N
1500320615.1,286054116.2,N
1500320616.0,286054116.2,N
1500320635.8,286054115.0,N
1500320655.6,286054113.5,N
1500320675.5,286054113.5,N
1500320695.3,286054115.9,N
1500320715.1,286054113.3,N
1500320735.9,286054115.7,N
1500320755.7,286054114.0,N
1500320775.5,286054114.4,N
1500320795.4,286054112.2,N
1500320815.2,286054114.5,N
1500320835.0,286054113.6,N
1500320835.9,286054113.6,N
1500320855.8,286054113.3,N
1500320875.6,286054117.8,N
1500320895.4,286054115.2,N
1500320915.3,286054114.1,N
1500320935.1,286054116.2,N
1500320936.0,286054116.2,N
1500320955.8,286054115.1,N
1500320975.7,286054113.4,N
1500320995.5,286054116.2,N
1500321015.3,286054116.9,N
1500321035.2,286054115.7,N
1500321055.9,286054117.7,N
1500321075.7,286054119.1,N
1500321095.6,286054119.6,N
1500321115.4,286054119.0,N
1500321135.2,286054119.5,N
1500321155.0,286054119.5,N
1500321156.0,286054119.5,N
1500321175.8,286054117.4,N
1500321195.6,286054117.6,N
1500321215.4,286054119.6,N
1500321235.3,286054119.6,N
1500321255.1,286054117.0,N
1500321275.8,286054118.3,N
1500321295.7,286054117.3,N
1500321315.5,286054116.7,N
1500321335.3,286054118.4,N
1500321355.2,286054122.6,N
1500321375.9,286054122.8,N
1500321395.7,286054120.9,N
1500321415.6,286054119.7,N
1500321435.4,286054122.7,N
1500321455.2,286054121.0,N
1500321475.1,286054120.6,N
1500321476.0,286054120.6,N
1500321495.8,286054120.6,N
1500321515.6,286054119.0,N
1500321535.5,286054122.5,N
1500321555.3,286054120.3,N
1500321575.1,286054122.5,N
1500321595.8,286054120.9,N
